Temperature
9 11 11 12 12 12 12 12 12 12 12 11 11 12 13 12 11 11 11 10 10 10 10 10 10 10 10 10 10 10 11 11 11 11 11 11 11 11 11 11 11 11 11 11
10 10 11 11 10 10 10 11 12 12 11 10 11 11 12 12 11 10 10 10 10 9 9 9 9 9 9 9 10 10 10 10 11 11 11 11 11 11 11 11 11 11 11 11
11 11 10 10 10 10 10 11 11 11 10 10 10 12 12 12 10 10 9 9 9 9 9 8 9 9 9 9 9 9 9 10 10 10 10 10 10 10 10 10 11 11 11 11
10 10 9 9 10 10 11 11 10 10 10 11 11 11 13 12 11 10 10 9 9 8 8 8 8 8 9 9 9 9 9 9 10 10 10 10 10 10 10 10 10 10 10 10
10 9 9 9 10 10 11 9 9 9 10 10 10 10 13 11 11 11 10 9 8 8 8 8 8 8 8 9 9 9 9 9 9 9 10 10 10 10 10 10 10 10 10 10
10 9 9 10 9 9 9 9 9 9 9 9 11 11 13 12 12 12 11 9 8 8 8 8 8 8 8 8 8 8 9 9 9 9 9 9 9 9 9 9 9 9 10 10
9 9 8 8 9 8 9 9 10 9 10 11 10 10 12 12 11 11 10 9 8 7 7 7 7 7 8 8 8 8 8 8 8 9 9 9 9 9 9 9 9 9 9 9
10 10 9 8 9 9 9 10 10 11 11 12 9 10 12 10 9 8 8 8 7 7 7 7 7 7 7 8 8 8 8 8 8 8 8 8 9 9 9 9 9 8 8 9
10 10 8 8 8 9 9 9 10 10 9 10 12 11 10 9 9 8 8 7 7 7 6 6 6 7 7 7 7 8 8 8 8 8 8 8 8 8 8 8 8 8 8 8
9 9 8 7 7 8 9 9 8 9 9 10 12 11 12 10 9 9 8 7 7 6 6 6 6 6 7 7 7 7 7 7 7 8 8 8 8 8 8 8 8 8 8 8
8 8 7 7 7 8 7 8 9 9 10 10 11 12 11 10 10 9 8 7 6 6 6 6 6 6 6 6 6 6 6 6 7 7 7 7 7 7 7 7 7 7 7 7
7 7 8 8 7 7 8 8 9 9 8 9 10 11 9 9 8 8 7 6 6 5 5 5 5 5 5 6 6 6 6 6 6 6 6 6 6 7 7 7 7 7 7 7
6 6 7 7 6 6 6 7 7 8 8 8 9 10 8 7 7 7 6 5 5 5 4 5 5 5 5 5 5 6 6 6 6 6 6 6 6 6 6 6 6 6 6 6
6 6 7 8 9 7 6 6 6 6 7 8 9 10 8 8 7 7 6 5 4 4 4 4 4 4 5 5 5 5 5 5 5 5 5 5 5 5 5 6 6 6 5 5
5 5 6 7 7 7 6 6 6 6 7 7 9 9 9 8 7 6 5 4 4 3 3 4 4 4 4 4 4 5 5 5 5 5 5 5 5 5 5 5 5 5 5 5
4 4 5 5 6 6 6 6 6 6 7 7 7 8 8 7 6 5 4 3 3 3 3 3 3 3 4 4 4 4 4 5 5 5 5 5 5 5 5 4 4 4 4 4
3 3 4 5 5 4 5 6 6 6 6 6 7 7 6 5 5 5 4 3 3 2 2 3 3 3 3 3 4 4 4 4 4 4 4 4 4 4 4 4 4 4 4 4
2 3 3 4 4 3 6 6 6 6 6 6 6 6 5 5 4 4 3 3 3 2 2 2 2 3 3 3 4 4 4 4 4 4 4 4 4 3 3 3 3 3 3 3
3 3 3 3 4 5 5 4 4 4 5 5 5 4 4 3 3 3 2 2 2 2 2 2 2 3 3 3 3 3 3 3 3 3 3 3 3 3 3 3 2 2 2 2
2 2 2 2 3 3 5 4 3 4 4 4 3 3 3 3 4 4 2 2 2 2 2 2 2 2 2 2 2 2 2 2 2 2 2 2 2 2 2 2 2 2 2 2
1 1 1 2 2 3 3 2 3 3 4 3 2 2 2 3 3 2 1 1 1 1 1 1 1 2 2 2 2 2 2 2 2 2 2 2 2 2 1 1 1 1 1 1
1 1 1 1 1 2 2 2 2 3 2 1 1 1 1 1 1 0 0 0 1 1 1 1 1 1 1 1 1 1 1 1 1 1 1 1 1 1 1 1 1 1 0 0
1 1 1 1 2 1 1 1 1 0 1 0 0 0 0 -0 -1 -0 -0 -0 -0 0 0 1 0 0 0 0 0 0 0 0 0 0 0 0 0 0 0 0 0 -0 -0 -0
-0 -0 0 -0 0 0 -0 -0 -1 -0 -0 -0 -0 -0 -1 -1 -1 -1 -1 -1 -1 -0 -0 -0 -0 -0 -1 -1 -1 -0 -0 -0 -0 -0 -0 -0 -0 -1 -1 -1 -1 -0 -1 -1
-1 -1 -1 -1 -0 -0 -1 -1 -1 -1 -1 -1 -1 -1 -1 -1 -1 -2 -1 -1 -1 -1 -1 -1 -1 -1 -1 -1 -1 -1 -1 -1 -1 -1 -1 -1 -1 -1 -1 -1 -1 -1 -1 -1
-2 -1 -1 -0 -1 -1 -1 -1 -1 -2 -2 -2 -2 -2 -1 -1 -2 -2 -2 -2 -2 -2 -2 -2 -2 -2 -2 -2 -2 -2 -2 -2 -2 -2 -2 -2 -2 -2 -2 -2 -2 -2 -2 -2
Wind_Speed
6 7 11 12 14 10 7 9 12 9 6 7 12 16 15 11 9 9 9 9 8 8 5 3 2 2 2 2 3 3 3 4 4 5 5 5 5 4 4 4 5 6 6 6
6 13 13 8 9 10 11 12 12 9 5 7 12 16 14 10 10 10 10 9 9 7 4 3 3 2 3 2 2 3 3 4 5 5 5 4 4 3 3 4 5 5 5 6
14 4 6 10 10 11 13 14 13 10 7 6 8 11 10 7 7 7 8 8 8 7 6 4 3 3 3 3 3 3 3 4 4 5 4 4 4 3 2 3 3 4 5 5
12 9 7 9 12 12 12 10 11 10 8 6 5 8 9 7 7 7 7 7 7 7 7 5 4 3 3 3 2 3 3 3 4 6 6 7 5 4 3 3 3 4 4 5
9 8 11 13 12 12 6 3 7 9 9 9 8 8 8 7 9 8 7 7 7 7 6 5 4 4 3 2 3 3 3 3 4 5 6 6 5 4 3 3 3 3 3 3
9 5 7 8 5 8 5 3 3 5 6 8 10 10 8 7 10 8 8 7 6 6 5 5 4 4 3 3 3 3 3 3 3 4 5 5 5 5 4 4 3 2 2 2
9 9 7 5 5 7 8 6 4 5 6 7 5 8 8 5 7 8 7 6 6 6 6 5 4 4 4 4 4 3 4 3 3 3 4 4 4 5 5 4 4 3 2 2
9 9 11 9 10 9 12 10 7 6 6 5 5 9 5 3 3 4 4 5 6 6 5 5 5 5 4 4 4 4 4 4 4 4 4 4 4 3 3 3 3 3 2 2
9 7 4 7 6 8 8 10 7 4 4 6 7 6 5 4 5 4 4 4 5 6 5 5 5 5 4 4 5 5 5 4 4 4 3 3 4 3 3 3 3 2 2 2
7 6 4 4 4 6 6 6 6 7 6 8 8 8 6 7 8 5 4 4 4 5 4 5 5 5 5 5 5 5 5 5 4 4 3 2 3 3 3 3 3 3 2 2
7 7 4 6 11 12 9 8 8 7 6 6 7 5 2 6 7 6 5 4 4 5 5 5 5 5 5 5 5 5 4 4 4 4 3 3 2 2 3 2 2 2 2 2
8 6 7 8 3 4 10 10 11 8 7 7 8 6 1 3 4 4 4 3 3 4 4 5 5 5 5 5 5 5 5 5 4 3 3 3 2 2 3 2 2 2 2 2
6 6 5 5 4 4 7 8 10 7 5 8 9 7 1 1 2 2 3 2 3 3 4 4 4 5 5 5 5 5 5 5 4 4 4 3 3 3 3 2 2 2 2 2
5 7 11 13 6 6 8 11 13 10 8 11 14 13 7 6 5 4 3 3 3 3 4 4 4 5 5 5 5 5 5 4 4 4 4 4 3 3 3 2 2 2 2 2
4 8 10 12 10 8 10 12 15 17 16 13 14 15 13 9 7 6 4 3 3 4 4 5 5 4 4 4 4 5 4 4 4 4 4 4 3 3 3 2 2 2 2 2
4 7 7 9 9 10 12 14 16 18 17 17 16 16 10 6 4 4 5 5 5 4 4 4 4 4 5 4 4 4 4 4 5 5 4 3 3 3 3 3 2 2 2 2
5 6 7 10 8 6 13 14 14 12 12 13 16 14 6 4 6 7 6 6 6 5 5 4 4 4 4 4 4 4 4 4 5 4 3 3 3 3 3 2 2 2 2 2
9 8 6 6 6 12 7 3 10 13 12 11 9 6 6 7 6 5 5 6 5 4 4 4 3 3 3 3 3 3 3 3 4 3 3 3 3 3 3 3 3 3 3 3
12 10 7 6 10 12 7 3 4 8 10 8 9 7 5 2 1 3 3 4 4 3 3 3 3 2 2 2 2 3 3 3 3 3 3 3 4 4 3 3 3 3 3 3
9 9 8 7 8 9 5 2 3 5 8 4 6 7 5 5 6 4 2 1 2 1 1 2 2 2 2 2 3 3 3 4 4 4 3 3 3 3 3 3 3 3 3 4
5 6 10 10 9 7 4 2 3 6 4 2 5 5 6 6 4 1 2 2 2 1 1 2 2 2 2 3 3 3 3 3 3 2 2 2 2 3 3 3 3 3 3 4
5 5 7 7 8 6 1 2 4 3 3 1 2 2 3 0 1 2 2 2 1 1 1 2 2 1 1 2 3 3 2 2 2 2 2 2 2 2 3 3 3 3 4 4
5 4 3 4 4 2 0 2 3 2 2 2 1 1 2 2 2 2 2 1 1 1 1 1 1 1 0 1 2 3 2 2 2 2 2 2 2 2 3 3 3 3 3 3
3 2 2 2 3 4 3 3 2 2 2 1 0 1 2 2 2 1 1 1 1 1 0 1 1 1 1 1 1 1 1 1 2 2 2 2 2 2 2 2 3 3 4 4
4 2 2 3 4 4 4 3 2 2 2 2 1 0 1 2 1 1 1 0 0 0 0 1 1 1 1 1 1 1 1 1 2 2 2 2 2 3 3 3 3 4 5 5
4 4 4 4 5 4 5 4 3 2 1 1 1 1 1 1 1 1 1 1 1 1 1 1 1 1 1 1 1 1 1 1 2 2 3 3 3 3 3 3 3 4 6 7
Wind_Direction
191 213 222 221 220 240 253 253 262 267 268 260 257 265 269 264 249 240 236 234 232 237 237 235 240 228 206 194 182 184 185 173 166 171 169 173 178 176 172 168 171 173 170 171
201 230 233 226 222 228 240 253 263 273 262 263 272 271 270 256 245 238 233 231 230 229 230 234 226 207 193 186 182 174 184 174 171 177 177 180 170 170 173 167 168 172 171 170
217 223 204 210 215 224 236 243 254 266 290 252 273 269 250 239 231 234 234 230 231 226 220 220 213 203 191 183 187 181 180 173 171 170 163 149 139 139 156 168 171 176 173 170
231 230 210 213 222 223 246 239 247 256 264 255 242 272 247 228 226 222 224 223 224 224 219 209 201 195 184 186 181 177 171 165 167 166 164 164 170 177 188 184 181 177 176 176
223 209 213 223 226 216 238 219 232 244 253 262 235 250 254 212 218 218 219 221 223 218 205 195 186 181 166 159 156 156 152 148 151 160 166 167 172 174 162 160 165 171 172 177
239 217 221 229 224 212 192 180 225 233 240 251 232 231 256 216 221 217 220 217 213 206 194 184 171 156 147 146 144 143 145 141 142 152 162 166 169 162 155 160 166 173 175 179
230 225 217 204 193 188 195 201 228 222 223 243 206 227 249 232 222 220 223 214 205 196 186 177 171 166 160 156 155 154 149 139 136 144 159 169 171 166 169 173 175 175 180 185
224 230 203 204 211 200 200 208 220 239 246 248 210 235 242 225 216 211 216 205 197 194 187 181 182 179 175 168 164 160 158 148 144 144 153 164 167 170 172 175 175 184 194 195
220 229 177 202 209 199 192 214 233 254 272 265 240 242 256 213 196 190 191 186 195 198 194 191 187 185 183 175 170 166 161 151 148 148 145 152 162 167 167 171 177 186 190 180
224 234 201 178 181 214 225 191 185 209 230 248 250 245 235 199 197 188 186 184 193 200 200 199 194 193 189 179 167 160 161 157 152 148 146 143 152 154 159 164 167 177 190 188
219 222 200 187 205 203 191 199 211 217 236 245 256 250 213 205 198 197 206 206 201 200 201 198 193 190 184 173 166 162 163 157 153 152 151 142 143 153 154 160 172 180 184 189
209 218 229 223 223 241 213 212 203 214 225 233 257 262 86 198 201 202 215 217 212 205 197 189 187 180 177 175 173 172 171 168 167 162 156 152 150 160 165 172 178 180 181 191
188 206 217 219 210 194 213 216 218 230 234 227 239 250 112 212 221 230 228 229 217 197 187 184 185 185 185 187 184 180 179 176 174 170 167 165 171 178 181 185 186 184 185 189
215 223 230 241 245 193 212 219 214 212 224 235 240 253 246 250 260 261 252 220 208 194 187 189 193 195 192 193 191 187 186 181 178 178 179 183 190 196 195 196 199 200 195 193
219 240 244 257 262 237 235 229 219 221 228 236 248 252 257 250 247 246 232 205 194 198 197 199 200 199 195 194 194 193 191 187 185 187 193 198 201 199 192 195 201 204 204 205
227 238 245 255 253 248 252 244 230 231 236 243 254 259 267 259 230 222 213 201 198 203 204 201 199 197 199 199 197 197 200 198 193 194 202 200 199 196 197 200 201 199 205 210
225 221 228 250 252 253 250 238 228 228 230 233 243 251 247 239 227 224 214 208 205 205 207 207 206 205 204 204 200 196 200 194 192 194 202 202 200 196 197 201 205 209 212 213
228 227 230 244 228 241 255 238 226 231 235 234 241 245 228 235 237 237 219 208 207 210 211 211 210 209 205 200 197 186 188 191 188 192 201 205 206 203 202 206 216 226 226 226
224 221 225 226 239 256 256 246 221 229 248 240 235 239 231 204 227 256 235 214 210 209 209 210 205 195 183 180 174 161 177 184 187 199 204 207 208 205 205 211 221 231 232 237
212 218 222 222 232 242 262 266 252 230 247 231 229 233 219 199 225 237 203 181 184 183 186 180 168 160 166 175 169 164 179 186 197 207 212 213 213 210 212 218 227 239 237 240
196 207 219 226 235 251 291 301 178 212 266 265 231 230 212 223 249 187 148 150 150 148 155 152 149 158 170 169 164 166 179 205 215 205 203 216 220 214 215 221 230 232 235 238
215 211 216 220 227 245 332 157 200 279 329 295 237 229 207 197 106 131 140 135 122 110 117 133 133 134 143 159 162 169 197 217 209 200 205 221 226 219 213 213 226 231 229 231
233 239 239 227 240 309 227 239 290 303 301 316 287 228 156 132 144 138 143 135 115 102 86 107 130 129 142 189 183 182 208 202 191 196 218 231 235 228 222 219 224 235 233 234
269 275 241 251 287 303 309 325 330 316 314 325 225 158 155 153 162 145 143 124 77 38 63 139 151 165 218 241 218 204 211 199 191 208 233 241 240 241 239 237 233 235 236 240
293 271 250 258 290 307 310 319 336 354 21 47 44 96 170 158 181 193 204 224 206 228 274 196 189 198 226 245 254 252 228 205 210 237 258 260 255 249 252 254 252 248 248 250
289 266 254 269 288 292 303 319 331 341 341 356 47 16 342 180 207 216 218 226 229 236 232 209 216 221 246 265 283 289 266 227 220 243 257 262 259 254 253 256 266 259 252 263
Height
1499 1498 1492 1490 1492 1490 1490 1489 1486 1485 1487 1488 1483 1478 1474 1475 1476 1475 1475 1475 1475 1476 1476 1476 1477 1477 1477 1477 1479 1480 1481 1482 1485 1487 1489 1492 1494 1496 1498 1500 1502 1504 1506 1508
1495 1491 1487 1490 1492 1493 1492 1489 1485 1484 1487 1486 1480 1474 1470 1470 1471 1471 1471 1472 1472 1473 1473 1474 1474 1474 1474 1475 1476 1477 1478 1480 1482 1485 1487 1490 1492 1494 1496 1498 1500 1502 1504 1506
1484 1483 1486 1488 1489 1490 1488 1486 1483 1483 1484 1483 1481 1468 1464 1465 1467 1468 1468 1469 1470 1470 1470 1471 1471 1471 1471 1472 1474 1475 1476 1478 1480 1483 1486 1488 1490 1492 1494 1496 1497 1500 1502 1504
1483 1483 1485 1485 1484 1484 1482 1482 1484 1485 1484 1475 1478 1467 1457 1459 1462 1463 1465 1466 1466 1467 1468 1468 1468 1469 1469 1471 1472 1473 1475 1477 1478 1481 1483 1485 1487 1489 1492 1493 1495 1498 1500 1502
1477 1480 1481 1480 1478 1481 1478 1482 1484 1483 1480 1477 1473 1471 1452 1456 1456 1457 1460 1462 1463 1464 1465 1465 1466 1467 1468 1470 1471 1472 1473 1475 1476 1479 1481 1483 1486 1488 1490 1492 1493 1495 1497 1499
1475 1478 1478 1476 1477 1479 1481 1483 1483 1482 1479 1474 1463 1464 1447 1448 1449 1451 1455 1458 1460 1461 1462 1464 1465 1466 1467 1468 1470 1471 1472 1473 1475 1477 1479 1481 1484 1485 1487 1489 1491 1493 1494 1496
1472 1473 1474 1475 1476 1478 1479 1478 1477 1474 1471 1459 1460 1460 1447 1445 1448 1450 1452 1455 1457 1459 1460 1461 1462 1464 1465 1466 1468 1469 1471 1472 1473 1475 1478 1480 1482 1483 1485 1487 1488 1490 1491 1493
1464 1463 1467 1469 1468 1468 1470 1469 1467 1463 1455 1449 1461 1453 1442 1447 1449 1450 1451 1452 1454 1456 1457 1458 1460 1461 1463 1464 1466 1467 1469 1471 1472 1474 1476 1478 1480 1481 1483 1485 1486 1487 1489 1490
1458 1457 1464 1465 1466 1466 1467 1466 1463 1463 1462 1457 1444 1444 1444 1445 1447 1449 1450 1450 1452 1453 1455 1456 1457 1459 1460 1462 1464 1466 1467 1469 1471 1472 1474 1476 1478 1479 1481 1483 1484 1485 1486 1488
1457 1458 1461 1464 1466 1466 1464 1462 1466 1465 1459 1450 1437 1437 1434 1439 1441 1444 1447 1448 1449 1451 1452 1454 1455 1457 1459 1460 1462 1464 1466 1467 1469 1471 1472 1474 1476 1477 1479 1480 1482 1483 1484 1485
1458 1457 1460 1462 1459 1456 1462 1463 1458 1455 1451 1446 1438 1431 1432 1435 1438 1441 1444 1446 1447 1448 1449 1451 1452 1454 1457 1458 1460 1462 1464 1466 1467 1469 1471 1472 1474 1475 1477 1478 1479 1480 1481 1482
1456 1455 1452 1453 1455 1455 1453 1452 1453 1453 1451 1448 1440 1434 1436 1437 1439 1441 1443 1444 1445 1447 1448 1449 1451 1452 1454 1456 1458 1460 1462 1464 1466 1467 1469 1470 1471 1473 1474 1476 1477 1478 1478 1479
1455 1454 1450 1449 1455 1457 1454 1452 1452 1450 1448 1447 1442 1434 1438 1439 1440 1441 1442 1443 1444 1445 1445 1447 1448 1450 1452 1454 1456 1458 1460 1462 1464 1465 1467 1468 1470 1471 1472 1473 1474 1475 1476 1476
1452 1448 1442 1436 1433 1442 1447 1448 1449 1450 1448 1441 1435 1429 1434 1437 1438 1439 1440 1441 1442 1443 1444 1445 1446 1448 1450 1451 1453 1456 1458 1460 1462 1463 1465 1466 1467 1468 1469 1470 1471 1472 1472 1473
1449 1445 1440 1437 1437 1439 1439 1440 1442 1443 1438 1437 1429 1429 1428 1433 1436 1438 1438 1439 1440 1441 1442 1443 1444 1445 1447 1449 1451 1453 1455 1457 1459 1461 1462 1463 1465 1466 1467 1467 1468 1469 1469 1470
1447 1444 1442 1440 1438 1438 1437 1434 1435 1435 1434 1433 1431 1429 1428 1433 1435 1436 1437 1438 1438 1439 1439 1440 1441 1443 1444 1446 1447 1449 1451 1454 1456 1457 1459 1460 1461 1463 1464 1464 1465 1466 1466 1467
1445 1444 1442 1435 1436 1438 1432 1428 1429 1430 1429 1429 1428 1425 1429 1431 1432 1433 1434 1435 1435 1436 1437 1437 1438 1440 1441 1443 1445 1447 1449 1451 1452 1454 1455 1457 1458 1459 1460 1461 1462 1462 1463 1463
1442 1441 1439 1435 1438 1437 1420 1424 1424 1424 1424 1426 1424 1425 1426 1428 1430 1431 1432 1432 1433 1433 1434 1435 1436 1437 1439 1440 1442 1444 1446 1448 1449 1450 1452 1453 1454 1455 1456 1457 1458 1458 1459 1459
1437 1438 1437 1434 1428 1420 1420 1424 1425 1424 1421 1424 1424 1424 1426 1427 1429 1429 1430 1430 1431 1432 1432 1433 1434 1435 1436 1438 1439 1441 1443 1444 1446 1447 1448 1450 1451 1451 1452 1453 1454 1455 1455 1456
1434 1434 1434 1431 1427 1421 1417 1422 1423 1424 1419 1421 1422 1423 1424 1425 1425 1426 1427 1428 1429 1430 1431 1431 1432 1433 1434 1436 1438 1439 1440 1441 1442 1443 1444 1446 1447 1448 1448 1449 1450 1451 1452 1452
1431 1431 1430 1427 1423 1417 1421 1422 1422 1422 1417 1420 1420 1421 1422 1422 1422 1424 1425 1427 1428 1429 1429 1430 1431 1431 1432 1434 1435 1436 1436 1438 1439 1440 1441 1442 1443 1444 1445 1446 1446 1447 1447 1447
1425 1425 1425 1424 1423 1423 1422 1422 1422 1420 1420 1419 1419 1420 1421 1421 1421 1422 1424 1425 1426 1427 1428 1428 1429 1429 1430 1431 1433 1433 1435 1436 1436 1437 1438 1439 1440 1440 1441 1442 1442 1443 1443 1443
1424 1424 1422 1422 1423 1422 1422 1422 1422 1421 1420 1419 1419 1420 1420 1421 1421 1422 1423 1424 1425 1426 1426 1427 1428 1428 1429 1430 1431 1432 1432 1433 1434 1435 1435 1436 1436 1437 1438 1438 1438 1439 1439 1439
1425 1425 1424 1423 1423 1423 1422 1421 1421 1420 1420 1419 1419 1420 1420 1420 1421 1422 1422 1423 1424 1425 1425 1426 1427 1427 1428 1428 1429 1430 1430 1431 1431 1432 1432 1433 1433 1433 1434 1434 1435 1435 1435 1435
1426 1425 1424 1423 1423 1422 1421 1421 1421 1420 1419 1419 1420 1420 1420 1420 1421 1421 1422 1422 1423 1424 1424 1425 1425 1425 1426 1427 1427 1428 1428 1429 1429 1429 1429 1430 1430 1430 1430 1431 1431 1431 1432 1432
1428 1427 1424 1422 1422 1422 1421 1421 1421 1420 1419 1420 1420 1420 1420 1420 1420 1420 1421 1422 1422 1423 1423 1424 1424 1424 1424 1425 1425 1426 1426 1426 1426 1426 1427 1427 1427 1427 1427 1427 1427 1427 1428 1427